Tracking 31027 objects as of 19-Jul-2025
HD Live streaming from Space Station
objects crossing your sky now

COSMOS 1275 DEB

Track COSMOS 1275 DEB now!
10-day predictions


NORAD ID: 12757
Int'l Code: 1981-053DA
Perigee: 919.2 km
Apogee: 1,001.9 km
Inclination: 82.9 °
Period: 104.1 minutes
Semi major axis: 7331 km
RCS: 0.017 m2 (small)
Launch date: June 4, 1981
Source: Commonwealth of Independent States (former USSR) (CIS)
Launch site: PLESETSK MISSILE AND SPACE COMPLEX (PKMTR)

Note: This is SATELLITE DEBRIS
Your satellite tracking list
COSMOS 1743
Track 1 satellite(s)




NASA's NSSDC Master Catalog

Two Line Element Set (TLE):
1 12757U 81053DA  25199.21887322  .00000469  00000-0  41100-3 0  9996
2 12757  82.9485 105.6157 0056383 255.6506 228.6884 13.82950628207246
Source of the keplerian elements: AFSPC